Time,TemperatureF,DewpointF,PressureIn,WindDirection,WindDirectionDegrees,WindSpeedMPH,WindSpeedGustMPH,Humidity,HourlyPrecipIn,Conditions,Clouds,dailyrainin,SoftwareType,DateUTC
2013-04-24 00:01:00,22.6,16.2,29.90,South,180,0.0,0.0,76,0.00,RA,,0.00,WeatherDisplay:10.37,2013-04-24 06:01:00,
2013-04-24 00:06:00,22.3,15.6,29.90,South,180,0.0,0.0,75,0.00,RA,,0.00,WeatherDisplay:10.37,2013-04-24 06:06:00,
2013-04-24 00:11:00,22.3,15.6,29.90,South,180,0.0,0.0,75,0.00,CLR,,0.00,WeatherDisplay:10.37,2013-04-24 06:11:00,
2013-04-24 00:16:00,22.3,15.6,29.89,SSE,158,1.8,2.3,75,0.00,CLR,,0.00,WeatherDisplay:10.37,2013-04-24 06:16:00,
2013-04-24 00:21:00,22.1,15.4,29.90,SSE,158,0.0,0.0,75,0.00,CLR,,0.00,WeatherDisplay:10.37,2013-04-24 06:21:00,
2013-04-24 00:26:00,21.9,15.2,29.90,SSE,158,0.0,0.0,75,0.00,CLR,,0.00,WeatherDisplay:10.37,2013-04-24 06:26:00,
2013-04-24 00:31:00,21.9,15.5,29.90,SSE,158,0.0,0.0,76,0.00,CLR,,0.00,WeatherDisplay:10.37,2013-04-24 06:31:00,
2013-04-24 00:36:00,21.7,15.3,29.90,SSE,158,0.0,0.0,76,0.00,CLR,,0.00,WeatherDisplay:10.37,2013-04-24 06:36:00,
2013-04-24 00:41:00,21.7,15.3,29.90,South,180,0.0,0.0,76,0.00,CLR,,0.00,WeatherDisplay:10.37,2013-04-24 06:41:00,
2013-04-24 00:46:00,21.9,15.5,29.89,South,180,0.0,0.0,76,0.00,CLR,,0.00,WeatherDisplay:10.37,2013-04-24 06:46:00,
2013-04-24 00:51:00,21.9,15.5,29.89,SSW,202,0.0,0.0,76,0.00,CLR,,0.00,WeatherDisplay:10.37,2013-04-24 06:51:00,
2013-04-24 00:56:00,22.1,15.7,29.89,West,270,0.0,0.0,76,0.00,CLR,,0.00,WeatherDisplay:10.37,2013-04-24 06:56:00,
2013-04-24 01:01:00,22.1,15.7,29.89,West,270,0.0,0.0,76,0.00,CLR,,0.00,WeatherDisplay:10.37,2013-04-24 07:01:00,
2013-04-24 01:06:00,22.1,15.7,29.89,West,270,0.0,0.0,76,0.00,CLR,,0.00,WeatherDisplay:10.37,2013-04-24 07:06:00,
2013-04-24 01:11:00,23.2,16.7,29.89,WNW,292,0.0,0.0,76,0.00,CLR,,0.00,WeatherDisplay:10.37,2013-04-24 07:11:00,
2013-04-24 01:16:00,23.4,16.9,29.90,NNW,338,1.6,3.5,76,0.00,CLR,,0.00,WeatherDisplay:10.37,2013-04-24 07:16:00,
2013-04-24 01:21:00,23.2,16.7,29.89,NNW,338,3.6,4.6,76,0.00,CLR,,0.00,WeatherDisplay:10.37,2013-04-24 07:21:00,
2013-04-24 01:26:00,23.4,16.9,29.90,North,0,2.5,2.5,76,0.00,CLR,,0.00,WeatherDisplay:10.37,2013-04-24 07:26:00,
2013-04-24 01:31:00,23.2,16.4,29.90,North,0,4.4,4.6,75,0.00,CLR,,0.00,WeatherDisplay:10.37,2013-04-24 07:31:00,
2013-04-24 01:36:00,23.0,15.9,29.89,North,0,3.6,4.0,74,0.00,CLR,,0.00,WeatherDisplay:10.37,2013-04-24 07:36:00,
2013-04-24 01:41:00,22.6,15.6,29.90,North,0,4.4,4.6,74,0.00,CLR,,0.00,WeatherDisplay:10.37,2013-04-24 07:41:00,
2013-04-24 01:46:00,22.1,15.4,29.90,NNE,22,3.7,3.7,75,0.00,CLR,,0.00,WeatherDisplay:10.37,2013-04-24 07:46:00,
2013-04-24 01:51:00,21.7,15.0,29.89,North,0,5.1,5.1,75,0.00,CLR,,0.00,WeatherDisplay:10.37,2013-04-24 07:51:00,
2013-04-24 01:56:00,21.4,14.7,29.90,North,0,4.5,5.1,75,0.00,CLR,,0.00,WeatherDisplay:10.37,2013-04-24 07:56:00,
2013-04-24 02:23:00,21.7,15.6,29.88,North,0,6.3,8.5,77,0.00,CLR,,0.00,WeatherDisplay:10.37,2013-04-24 08:23:00,
2013-04-24 02:28:00,21.6,15.5,29.88,North,0,4.2,4.6,77,0.00,CLR,,0.00,WeatherDisplay:10.37,2013-04-24 08:28:00,
2013-04-24 02:33:00,21.6,15.5,29.88,North,0,3.6,4.6,77,0.00,CLR,,0.00,WeatherDisplay:10.37,2013-04-24 08:33:00,
2013-04-24 02:38:00,21.6,15.5,29.88,NNW,338,3.4,3.5,77,0.00,CLR,,0.00,WeatherDisplay:10.37,2013-04-24 08:38:00,
2013-04-24 02:43:00,21.7,15.6,29.89,NW,315,3.1,3.5,77,0.00,CLR,,0.00,WeatherDisplay:10.37,2013-04-24 08:43:00,
2013-04-24 02:48:00,21.4,15.0,29.89,North,0,3.6,3.6,76,0.00,CLR,,0.00,WeatherDisplay:10.37,2013-04-24 08:48:00,
2013-04-24 02:53:00,21.4,15.3,29.89,NNW,338,3.5,4.6,77,0.00,CLR,,0.00,WeatherDisplay:10.37,2013-04-24 08:53:00,
2013-04-24 02:58:00,21.4,15.3,29.88,North,0,4.7,4.7,77,0.00,CLR,,0.00,WeatherDisplay:10.37,2013-04-24 08:58:00,
2013-04-24 03:03:00,21.4,15.3,29.88,NNE,22,4.9,4.9,77,0.00,CLR,,0.00,WeatherDisplay:10.37,2013-04-24 09:03:00,
2013-04-24 03:08:00,21.4,15.3,29.88,NNE,22,4.8,4.8,77,0.00,CLR,,0.00,WeatherDisplay:10.37,2013-04-24 09:08:00,
2013-04-24 03:13:00,21.6,15.5,29.88,NNE,22,3.8,3.8,77,0.00,CLR,,0.00,WeatherDisplay:10.37,2013-04-24 09:13:00,
2013-04-24 03:18:00,21.4,15.3,29.87,North,0,5.4,5.8,77,0.00,CLR,,0.00,WeatherDisplay:10.37,2013-04-24 09:18:00,
2013-04-24 03:23:00,21.6,15.5,29.87,North,0,3.7,5.8,77,0.00,CLR,,0.00,WeatherDisplay:10.37,2013-04-24 09:23:00,
2013-04-24 03:28:00,21.7,15.6,29.87,North,0,5.3,5.8,77,0.00,CLR,,0.00,WeatherDisplay:10.37,2013-04-24 09:28:00,
2013-04-24 03:33:00,21.9,15.8,29.87,NNE,22,4.4,4.6,77,0.00,CLR,,0.00,WeatherDisplay:10.37,2013-04-24 09:33:00,
2013-04-24 03:38:00,21.9,15.5,29.87,North,0,4.0,4.0,76,0.00,CLR,,0.00,WeatherDisplay:10.37,2013-04-24 09:38:00,
2013-04-24 03:43:00,21.7,15.0,29.87,North,0,3.8,3.8,75,0.00,CLR,,0.00,WeatherDisplay:10.37,2013-04-24 09:43:00,
2013-04-24 03:48:00,21.7,15.0,29.88,NNW,338,5.1,5.1,75,0.00,CLR,,0.00,WeatherDisplay:10.37,2013-04-24 09:48:00,
2013-04-24 03:53:00,21.4,14.7,29.88,West,270,1.3,2.3,75,0.00,CLR,,0.00,WeatherDisplay:10.37,2013-04-24 09:53:00,
2013-04-24 03:58:00,21.0,14.3,29.88,WNW,292,0.0,0.0,75,0.00,CLR,,0.00,WeatherDisplay:10.37,2013-04-24 09:58:00,
2013-04-24 04:03:00,21.0,14.6,29.88,WSW,248,0.0,0.0,76,0.00,CLR,,0.00,WeatherDisplay:10.37,2013-04-24 10:03:00,
2013-04-24 04:08:00,20.8,14.5,29.88,SW,225,0.0,0.0,76,0.00,CLR,,0.00,WeatherDisplay:10.37,2013-04-24 10:08:00,
2013-04-24 04:13:00,20.5,14.1,29.88,WSW,248,0.0,0.0,76,0.00,CLR,,0.00,WeatherDisplay:10.37,2013-04-24 10:13:00,
2013-04-24 04:18:00,20.3,13.9,29.87,West,270,0.0,0.0,76,0.00,CLR,,0.00,WeatherDisplay:10.37,2013-04-24 10:18:00,
2013-04-24 04:23:00,20.1,13.8,29.87,SW,225,0.0,0.0,76,0.00,CLR,,0.00,WeatherDisplay:10.37,2013-04-24 10:23:00,
2013-04-24 04:28:00,19.9,13.9,29.87,SSW,202,0.0,0.0,77,0.00,CLR,,0.00,WeatherDisplay:10.37,2013-04-24 10:28:00,
2013-04-24 04:33:00,19.6,13.5,29.87,WNW,292,0.0,0.0,77,0.00,CLR,,0.00,WeatherDisplay:10.37,2013-04-24 10:33:00,
2013-04-24 04:38:00,19.8,13.7,29.87,SSW,202,0.0,0.0,77,0.00,CLR,,0.00,WeatherDisplay:10.37,2013-04-24 10:38:00,
2013-04-24 04:43:00,19.9,13.9,29.87,SW,225,0.0,0.0,77,0.00,CLR,,0.00,WeatherDisplay:10.37,2013-04-24 10:43:00,
2013-04-24 04:48:00,20.3,13.9,29.88,SW,225,4.7,5.8,76,0.00,CLR,,0.00,WeatherDisplay:10.37,2013-04-24 10:48:00,
2013-04-24 04:53:00,20.3,13.9,29.88,SSW,202,2.7,4.6,76,0.00,CLR,,0.00,WeatherDisplay:10.37,2013-04-24 10:53:00,
2013-04-24 04:58:00,20.3,13.9,29.88,SSW,202,0.0,0.0,76,0.00,CLR,,0.00,WeatherDisplay:10.37,2013-04-24 10:58:00,
2013-04-24 05:03:00,20.1,14.1,29.88,South,180,0.0,0.0,77,0.00,CLR,,0.00,WeatherDisplay:10.37,2013-04-24 11:03:00,
2013-04-24 05:08:00,19.9,13.9,29.88,South,180,0.0,0.0,77,0.00,CLR,,0.00,WeatherDisplay:10.37,2013-04-24 11:08:00,
2013-04-24 05:13:00,19.9,13.9,29.88,SE,135,0.0,0.0,77,0.00,CLR,,0.00,WeatherDisplay:10.37,2013-04-24 11:13:00,
2013-04-24 05:18:00,19.6,13.5,29.88,South,180,1.7,4.6,77,0.00,CLR,,0.00,WeatherDisplay:10.37,2013-04-24 11:18:00,
2013-04-24 05:23:00,19.8,13.7,29.88,SSW,202,2.6,3.5,77,0.00,CLR,,0.00,WeatherDisplay:10.37,2013-04-24 11:23:00,
2013-04-24 05:28:00,19.9,13.9,29.88,SSW,202,2.5,2.5,77,0.00,CLR,,0.00,WeatherDisplay:10.37,2013-04-24 11:28:00,
2013-04-24 05:33:00,20.3,14.2,29.88,South,180,2.4,2.4,77,0.00,CLR,,0.00,WeatherDisplay:10.37,2013-04-24 11:33:00,
2013-04-24 05:38:00,20.5,14.4,29.88,SSE,158,0.0,0.0,77,0.00,CLR,,0.00,WeatherDisplay:10.37,2013-04-24 11:38:00,
2013-04-24 05:43:00,20.3,14.2,29.88,SSE,158,0.0,0.0,77,0.00,CLR,,0.00,WeatherDisplay:10.37,2013-04-24 11:43:00,
2013-04-24 05:48:00,20.3,14.2,29.87,South,180,0.0,0.0,77,0.00,CLR,,0.00,WeatherDisplay:10.37,2013-04-24 11:48:00,
2013-04-24 05:53:00,20.5,14.4,29.88,South,180,0.0,0.0,77,0.00,CLR,,0.00,WeatherDisplay:10.37,2013-04-24 11:53:00,
2013-04-24 05:58:00,20.8,14.8,29.88,South,180,2.2,2.3,77,0.00,CLR,,0.00,WeatherDisplay:10.37,2013-04-24 11:58:00,
2013-04-24 06:03:00,21.4,15.6,29.88,SW,225,3.7,6.9,78,0.00,CLR,,0.00,WeatherDisplay:10.37,2013-04-24 12:03:00,
2013-04-24 06:08:00,21.7,15.9,29.87,SSE,158,2.7,3.5,78,0.00,CLR,,0.00,WeatherDisplay:10.37,2013-04-24 12:08:00,
2013-04-24 06:13:00,21.9,16.1,29.87,ESE,112,0.0,0.0,78,0.00,CLR,,0.00,WeatherDisplay:10.37,2013-04-24 12:13:00,
2013-04-24 06:18:00,22.1,16.0,29.88,SSW,202,0.3,3.5,77,0.00,CLR,,0.00,WeatherDisplay:10.37,2013-04-24 12:18:00,
2013-04-24 06:23:00,22.3,16.2,29.88,South,180,0.0,2.3,77,0.00,CLR,,0.00,WeatherDisplay:10.37,2013-04-24 12:23:00,
2013-04-24 06:28:00,22.6,16.5,29.88,South,180,2.2,2.3,77,0.00,CLR,,0.00,WeatherDisplay:10.37,2013-04-24 12:28:00,
2013-04-24 06:33:00,22.8,16.7,29.88,South,180,3.5,3.5,77,0.00,CLR,,0.00,WeatherDisplay:10.37,2013-04-24 12:33:00,
2013-04-24 06:38:00,22.8,16.7,29.88,SSW,202,2.2,2.3,77,0.00,CLR,,0.00,WeatherDisplay:10.37,2013-04-24 12:38:00,
2013-04-24 06:43:00,23.2,17.0,29.88,SSW,202,0.0,0.0,77,0.00,CLR,,0.00,WeatherDisplay:10.37,2013-04-24 12:43:00,
2013-04-24 06:48:00,23.5,17.4,29.88,ESE,112,2.0,2.3,77,0.00,CLR,,0.00,WeatherDisplay:10.37,2013-04-24 12:48:00,
2013-04-24 06:53:00,23.4,17.2,29.89,ESE,112,0.0,0.0,77,0.00,CLR,,0.00,WeatherDisplay:10.37,2013-04-24 12:53:00,
2013-04-24 06:58:00,23.5,17.4,29.89,SSE,158,0.0,0.0,77,0.00,CLR,,0.00,WeatherDisplay:10.37,2013-04-24 12:58:00,
2013-04-24 07:03:00,23.9,17.4,29.89,SSE,158,2.0,2.3,76,0.00,CLR,,0.00,WeatherDisplay:10.37,2013-04-24 13:03:00,
2013-04-24 07:08:00,24.1,17.6,29.89,SSE,158,2.5,3.5,76,0.00,CLR,,0.00,WeatherDisplay:10.37,2013-04-24 13:08:00,
2013-04-24 07:13:00,24.4,18.0,29.89,South,180,0.0,0.0,76,0.00,CLR,,0.00,WeatherDisplay:10.37,2013-04-24 13:13:00,
2013-04-24 07:18:00,24.6,18.1,29.89,SSW,202,0.8,2.3,76,0.00,CLR,,0.00,WeatherDisplay:10.37,2013-04-24 13:18:00,
2013-04-24 07:23:00,24.4,18.0,29.89,SSE,158,2.1,2.3,76,0.00,CLR,,0.00,WeatherDisplay:10.37,2013-04-24 13:23:00,
2013-04-24 07:28:00,24.4,18.0,29.89,SSE,158,0.0,0.0,76,0.00,CLR,,0.00,WeatherDisplay:10.37,2013-04-24 13:28:00,
2013-04-24 07:33:00,24.6,18.1,29.89,SSE,158,0.0,0.0,76,0.00,CLR,,0.00,WeatherDisplay:10.37,2013-04-24 13:33:00,
2013-04-24 07:38:00,25.0,18.5,29.89,NNE,22,0.0,0.0,76,0.00,CLR,,0.00,WeatherDisplay:10.37,2013-04-24 13:38:00,
2013-04-24 07:43:00,25.3,18.8,29.90,ENE,68,0.0,0.0,76,0.00,CLR,,0.00,WeatherDisplay:10.37,2013-04-24 13:43:00,
2013-04-24 07:48:00,25.5,18.7,29.90,NNW,338,1.8,2.3,75,0.00,CLR,,0.00,WeatherDisplay:10.37,2013-04-24 13:48:00,
2013-04-24 07:53:00,25.9,19.0,29.89,NNW,338,0.0,0.0,75,0.00,CLR,,0.00,WeatherDisplay:10.37,2013-04-24 13:53:00,
2013-04-24 07:58:00,26.1,19.2,29.90,SW,225,0.0,0.0,75,0.00,CLR,,0.00,WeatherDisplay:10.37,2013-04-24 13:58:00,
2013-04-24 08:03:00,26.8,19.6,29.90,SSE,158,3.2,3.5,74,0.00,CLR,,0.00,WeatherDisplay:10.37,2013-04-24 14:03:00,
2013-04-24 08:08:00,27.1,19.9,29.90,SSE,158,0.0,0.0,74,0.00,CLR,,0.00,WeatherDisplay:10.37,2013-04-24 14:08:00,
2013-04-24 08:13:00,27.3,20.1,29.90,ESE,112,0.0,0.0,74,0.00,CLR,,0.00,WeatherDisplay:10.37,2013-04-24 14:13:00,
2013-04-24 08:18:00,27.1,19.9,29.90,NE,45,0.5,3.5,74,0.00,CLR,,0.00,WeatherDisplay:10.37,2013-04-24 14:18:00,
2013-04-24 08:23:00,27.1,19.9,29.90,ESE,112,2.2,2.7,74,0.00,CLR,,0.00,WeatherDisplay:10.37,2013-04-24 14:23:00,
2013-04-24 08:28:00,27.9,20.6,29.90,SSE,158,0.0,0.0,74,0.00,CLR,,0.00,WeatherDisplay:10.37,2013-04-24 14:28:00,
2013-04-24 08:33:00,28.6,21.7,29.90,NE,45,0.0,0.0,75,0.00,CLR,,0.00,WeatherDisplay:10.37,2013-04-24 14:33:00,
2013-04-24 08:38:00,29.5,22.2,29.90,SSE,158,0.0,0.0,74,0.00,CLR,,0.00,WeatherDisplay:10.37,2013-04-24 14:38:00,
2013-04-24 08:43:00,30.7,23.1,29.90,SSE,158,0.0,0.0,73,0.00,CLR,,0.00,WeatherDisplay:10.37,2013-04-24 14:43:00,
2013-04-24 08:48:00,32.2,24.2,29.90,SSE,158,1.8,2.3,72,0.00,CLR,,0.00,WeatherDisplay:10.37,2013-04-24 14:48:00,
2013-04-24 08:53:00,32.7,24.3,29.90,West,270,0.0,0.0,71,0.00,CLR,,0.00,WeatherDisplay:10.37,2013-04-24 14:53:00,
2013-04-24 08:58:00,33.1,24.4,29.90,SSW,202,0.0,0.0,70,0.00,CLR,,0.00,WeatherDisplay:10.37,2013-04-24 14:58:00,
2013-04-24 09:03:00,34.3,25.2,29.90,SSW,202,0.0,0.0,69,0.00,CLR,,0.00,WeatherDisplay:10.37,2013-04-24 15:03:00,
2013-04-24 09:09:00,35.2,25.7,29.90,SSE,158,2.5,2.9,68,0.00,CLR,,0.00,WeatherDisplay:10.37,2013-04-24 15:09:00,
2013-04-24 09:14:00,35.4,25.5,29.90,South,180,5.0,5.8,67,0.00,CLR,,0.00,WeatherDisplay:10.37,2013-04-24 15:14:00,
2013-04-24 09:19:00,35.8,25.5,29.90,South,180,2.9,3.5,66,0.00,CLR,,0.00,WeatherDisplay:10.37,2013-04-24 15:19:00,
2013-04-24 09:24:00,36.0,25.7,29.90,SSE,158,3.0,3.0,66,0.00,CLR,,0.00,WeatherDisplay:10.37,2013-04-24 15:24:00,
2013-04-24 09:29:00,35.8,25.2,29.90,SSE,158,4.3,4.6,65,0.00,CLR,,0.00,WeatherDisplay:10.37,2013-04-24 15:29:00,
2013-04-24 09:34:00,36.3,25.7,29.90,SSE,158,4.9,4.9,65,0.00,CLR,,0.00,WeatherDisplay:10.37,2013-04-24 15:34:00,
2013-04-24 09:39:00,36.3,25.7,29.90,South,180,4.8,6.9,65,0.00,CLR,,0.00,WeatherDisplay:10.37,2013-04-24 15:39:00,
2013-04-24 09:44:00,36.3,24.9,29.90,SE,135,2.9,5.8,63,0.00,CLR,,0.00,WeatherDisplay:10.37,2013-04-24 15:44:00,
2013-04-24 09:49:00,37.0,25.6,29.90,South,180,3.1,3.5,63,0.00,CLR,,0.00,WeatherDisplay:10.37,2013-04-24 15:49:00,
2013-04-24 09:54:00,37.4,24.8,29.90,South,180,9.0,9.8,60,0.00,CLR,,0.00,WeatherDisplay:10.37,2013-04-24 15:54:00,
2013-04-24 09:59:00,37.9,26.1,29.89,SSW,202,10.3,10.4,62,0.00,CLR,,0.00,WeatherDisplay:10.37,2013-04-24 15:59:00,
2013-04-24 10:04:00,38.3,25.6,29.90,West,270,2.9,3.5,60,0.00,CLR,,0.00,WeatherDisplay:10.37,2013-04-24 16:04:00,
2013-04-24 10:09:00,38.1,25.0,29.91,NNE,22,8.1,11.2,59,0.00,CLR,,0.00,WeatherDisplay:10.37,2013-04-24 16:09:00,
2013-04-24 10:14:00,37.6,24.5,29.91,ESE,112,5.6,17.3,59,0.00,CLR,,0.00,WeatherDisplay:10.37,2013-04-24 16:14:00,
2013-04-24 10:19:00,38.3,23.1,29.91,SSE,158,0.0,0.0,54,0.00,CLR,,0.00,WeatherDisplay:10.37,2013-04-24 16:19:00,
2013-04-24 10:24:00,36.9,25.4,29.91,NNE,22,9.6,10.3,63,0.00,CLR,,0.00,WeatherDisplay:10.37,2013-04-24 16:24:00,
2013-04-24 10:29:00,36.7,24.9,29.91,ESE,112,6.3,6.3,62,0.00,CLR,,0.00,WeatherDisplay:10.37,2013-04-24 16:29:00,
2013-04-24 10:34:00,37.2,25.8,29.91,NE,45,7.6,8.1,63,0.00,CLR,,0.00,WeatherDisplay:10.37,2013-04-24 16:34:00,
2013-04-24 10:39:00,37.0,27.1,29.91,NE,45,7.8,9.2,67,0.00,CLR,,0.00,WeatherDisplay:10.37,2013-04-24 16:39:00,
2013-04-24 10:44:00,37.2,27.6,29.91,NE,45,2.9,4.6,68,0.00,CLR,,0.00,WeatherDisplay:10.37,2013-04-24 16:44:00,
2013-04-24 10:49:00,37.6,27.6,29.91,NNE,22,9.4,9.4,67,0.00,CLR,,0.00,WeatherDisplay:10.37,2013-04-24 16:49:00,
2013-04-24 10:54:00,37.6,28.0,29.90,NE,45,6.0,6.9,68,0.00,CLR,,0.00,WeatherDisplay:10.37,2013-04-24 16:54:00,
2013-04-24 10:59:00,37.6,28.0,29.91,NNE,22,1.8,3.5,68,0.00,CLR,,0.00,WeatherDisplay:10.37,2013-04-24 16:59:00,
2013-04-24 11:04:00,37.9,28.3,29.91,NNE,22,4.0,4.0,68,0.00,CLR,,0.00,WeatherDisplay:10.37,2013-04-24 17:04:00,
2013-04-24 11:09:00,38.8,29.5,29.91,North,0,9.2,9.2,69,0.00,CLR,,0.00,WeatherDisplay:10.37,2013-04-24 17:09:00,
2013-04-24 11:14:00,39.6,30.2,29.91,North,0,7.6,8.1,69,0.00,CLR,,0.00,WeatherDisplay:10.37,2013-04-24 17:14:00,
2013-04-24 11:19:00,39.7,30.0,29.91,North,0,8.9,9.2,68,0.00,CLR,,0.00,WeatherDisplay:10.37,2013-04-24 17:19:00,
2013-04-24 11:24:00,40.3,30.2,29.91,NNE,22,4.9,4.9,67,0.00,CLR,,0.00,WeatherDisplay:10.37,2013-04-24 17:24:00,
2013-04-24 11:29:00,40.3,30.2,29.91,NNE,22,4.9,4.9,67,0.00,CLR,,0.00,WeatherDisplay:10.37,2013-04-24 17:29:00,
2013-04-24 11:34:00,40.3,30.2,29.91,NNE,22,4.9,4.9,67,0.00,CLR,,0.00,WeatherDisplay:10.37,2013-04-24 17:34:00,
2013-04-24 11:39:00,42.1,31.5,29.91,NNE,22,6.5,6.9,66,0.00,CLR,,0.00,WeatherDisplay:10.37,2013-04-24 17:39:00,
2013-04-24 11:44:00,42.4,31.5,29.91,NNE,22,7.4,8.1,65,0.00,CLR,,0.00,WeatherDisplay:10.37,2013-04-24 17:44:00,
2013-04-24 11:49:00,43.3,32.4,29.91,ENE,68,9.2,9.2,65,0.00,CLR,,0.00,WeatherDisplay:10.37,2013-04-24 17:49:00,
2013-04-24 11:54:00,44.4,30.6,29.91,NE,45,6.4,8.1,58,0.00,CLR,,0.00,WeatherDisplay:10.37,2013-04-24 17:54:00,
2013-04-24 11:59:00,44.6,31.1,29.91,NE,45,6.3,6.3,59,0.00,CLR,,0.00,WeatherDisplay:10.37,2013-04-24 17:59:00,
2013-04-24 12:04:00,45.0,29.3,29.91,NE,45,6.9,6.9,54,0.00,CLR,,0.00,WeatherDisplay:10.37,2013-04-24 18:04:00,
2013-04-24 12:09:00,45.5,30.3,29.91,NNE,22,2.6,2.6,55,0.00,CLR,,0.00,WeatherDisplay:10.37,2013-04-24 18:09:00,
2013-04-24 12:14:00,46.0,30.3,29.91,ESE,112,0.6,2.3,54,0.00,CLR,,0.00,WeatherDisplay:10.37,2013-04-24 18:14:00,
2013-04-24 12:19:00,46.2,29.1,29.91,NE,45,3.6,3.6,51,0.00,CLR,,0.00,WeatherDisplay:10.37,2013-04-24 18:19:00,
2013-04-24 12:24:00,46.9,30.2,29.91,SSE,158,0.0,0.0,52,0.00,CLR,,0.00,WeatherDisplay:10.37,2013-04-24 18:24:00,
2013-04-24 12:29:00,47.1,27.4,29.91,North,0,0.0,5.8,46,0.00,CLR,,0.00,WeatherDisplay:10.37,2013-04-24 18:29:00,
2013-04-24 12:34:00,47.1,27.4,29.91,NE,45,7.6,8.1,46,0.00,CLR,,0.00,WeatherDisplay:10.37,2013-04-24 18:34:00,
2013-04-24 12:39:00,47.8,28.6,29.91,NNE,22,0.0,0.0,47,0.00,CLR,,0.00,WeatherDisplay:10.37,2013-04-24 18:39:00,
2013-04-24 12:44:00,48.0,27.7,29.91,NE,45,6.1,6.9,45,0.00,CLR,,0.00,WeatherDisplay:10.37,2013-04-24 18:44:00,
2013-04-24 12:49:00,48.2,26.7,29.91,NE,45,2.7,2.7,43,0.00,CLR,,0.00,WeatherDisplay:10.37,2013-04-24 18:49:00,
2013-04-24 12:54:00,48.7,28.9,29.91,SE,135,3.4,3.5,46,0.00,CLR,,0.00,WeatherDisplay:10.37,2013-04-24 18:54:00,
2013-04-24 12:59:00,49.1,27.5,29.91,ENE,68,5.1,5.1,43,0.00,CLR,,0.00,WeatherDisplay:10.37,2013-04-24 18:59:00,
2013-04-24 13:04:00,49.1,29.2,29.91,SSE,158,0.0,0.0,46,0.00,CLR,,0.00,WeatherDisplay:10.37,2013-04-24 19:04:00,
2013-04-24 13:09:00,48.9,27.4,29.91,East,90,3.5,5.8,43,0.00,CLR,,0.00,WeatherDisplay:10.37,2013-04-24 19:09:00,
2013-04-24 13:14:00,49.1,28.1,29.90,East,90,5.3,5.8,44,0.00,CLR,,0.00,WeatherDisplay:10.37,2013-04-24 19:14:00,
2013-04-24 13:19:00,49.1,27.0,29.90,NNE,22,0.0,0.0,42,0.00,CLR,,0.00,WeatherDisplay:10.37,2013-04-24 19:19:00,
2013-04-24 13:24:00,49.1,25.8,29.91,NNE,22,1.4,4.7,40,0.00,CLR,,0.00,WeatherDisplay:10.37,2013-04-24 19:24:00,
2013-04-24 13:29:00,49.3,26.0,29.91,NNW,338,5.4,6.9,40,0.00,CLR,,0.00,WeatherDisplay:10.37,2013-04-24 19:29:00,
2013-04-24 13:34:00,49.3,25.3,29.91,West,270,0.0,0.0,39,0.00,CLR,,0.00,WeatherDisplay:10.37,2013-04-24 19:34:00,
2013-04-24 13:39:00,50.4,28.1,29.91,ENE,68,1.9,4.6,42,0.00,CLR,,0.00,WeatherDisplay:10.37,2013-04-24 19:39:00,
2013-04-24 13:44:00,50.5,27.1,29.90,ENE,68,0.0,0.0,40,0.00,CLR,,0.00,WeatherDisplay:10.37,2013-04-24 19:44:00,
2013-04-24 13:49:00,50.7,29.0,29.90,ENE,68,4.0,4.0,43,0.00,CLR,,0.00,WeatherDisplay:10.37,2013-04-24 19:49:00,
2013-04-24 13:54:00,51.1,29.9,29.90,SE,135,5.0,5.8,44,0.00,CLR,,0.00,WeatherDisplay:10.37,2013-04-24 19:54:00,
2013-04-24 13:59:00,51.1,29.3,29.90,ESE,112,7.4,7.4,43,0.00,CLR,,0.00,WeatherDisplay:10.37,2013-04-24 19:59:00,
2013-04-24 14:04:00,50.7,28.4,29.90,ENE,68,2.9,5.4,42,0.00,CLR,,0.00,WeatherDisplay:10.37,2013-04-24 20:04:00,
2013-04-24 14:09:00,50.7,27.8,29.90,NNE,22,0.6,0.0,41,0.00,CLR,,0.00,WeatherDisplay:10.37,2013-04-24 20:09:00,
2013-04-24 14:14:00,50.5,27.1,29.90,North,0,6.3,8.1,40,0.00,CLR,,0.00,WeatherDisplay:10.37,2013-04-24 20:14:00,
2013-04-24 14:19:00,51.3,30.6,29.90,ENE,68,5.8,5.8,45,0.00,CLR,,0.00,WeatherDisplay:10.37,2013-04-24 20:19:00,
2013-04-24 14:24:00,51.4,29.7,29.90,East,90,2.7,6.9,43,0.00,CLR,,0.00,WeatherDisplay:10.37,2013-04-24 20:24:00,
2013-04-24 14:29:00,51.6,30.9,29.90,South,180,5.1,5.1,45,0.00,CLR,,0.00,WeatherDisplay:10.37,2013-04-24 20:29:00,
2013-04-24 14:34:00,52.5,31.2,29.90,South,180,3.4,3.5,44,0.00,CLR,,0.00,WeatherDisplay:10.37,2013-04-24 20:34:00,
2013-04-24 14:39:00,52.5,29.5,29.90,East,90,3.5,4.6,41,0.00,CLR,,0.00,WeatherDisplay:10.37,2013-04-24 20:39:00,
2013-04-24 14:44:00,52.2,28.5,29.90,ENE,68,3.4,3.5,40,0.00,CLR,,0.00,WeatherDisplay:10.37,2013-04-24 20:44:00,
2013-04-24 14:49:00,51.6,26.2,29.90,ENE,68,0.0,0.0,37,0.00,CLR,,0.00,WeatherDisplay:10.37,2013-04-24 20:49:00,
2013-04-24 14:54:00,51.6,28.7,29.89,South,180,0.0,0.0,41,0.00,CLR,,0.00,WeatherDisplay:10.37,2013-04-24 20:54:00,
2013-04-24 14:59:00,52.9,28.6,29.89,SE,135,3.8,6.9,39,0.00,CLR,,0.00,WeatherDisplay:10.37,2013-04-24 20:59:00,
2013-04-24 15:04:00,52.5,28.2,29.89,SE,135,0.0,0.0,39,0.00,CLR,,0.00,WeatherDisplay:10.37,2013-04-24 21:04:00,
2013-04-24 15:09:00,52.7,29.0,29.89,SE,135,8.0,9.2,40,0.00,CLR,,0.00,WeatherDisplay:10.37,2013-04-24 21:09:00,
2013-04-24 15:14:00,52.3,27.5,29.89,SE,135,10.7,12.7,38,0.00,CLR,,0.00,WeatherDisplay:10.37,2013-04-24 21:14:00,
2013-04-24 15:19:00,52.9,32.1,29.89,SSE,158,14.1,14.1,45,0.00,CLR,,0.00,WeatherDisplay:10.37,2013-04-24 21:19:00,
2013-04-24 15:24:00,53.2,31.3,29.89,SSE,158,7.0,7.0,43,0.00,CLR,,0.00,WeatherDisplay:10.37,2013-04-24 21:24:00,
2013-04-24 15:29:00,53.4,28.4,29.89,NNE,22,1.9,5.8,38,0.00,CLR,,0.00,WeatherDisplay:10.37,2013-04-24 21:29:00,
2013-04-24 15:34:00,53.8,30.6,29.88,SSE,158,1.1,5.6,41,0.00,CLR,,0.00,WeatherDisplay:10.37,2013-04-24 21:34:00,
2013-04-24 15:39:00,54.3,30.5,29.88,ESE,112,2.8,3.5,40,0.00,CLR,,0.00,WeatherDisplay:10.37,2013-04-24 21:39:00,
2013-04-24 15:44:00,54.0,30.2,29.88,ESE,112,4.2,4.6,40,0.00,CLR,,0.00,WeatherDisplay:10.37,2013-04-24 21:44:00,
2013-04-24 15:49:00,54.5,31.9,29.88,SSE,158,1.8,2.9,42,0.00,CLR,,0.00,WeatherDisplay:10.37,2013-04-24 21:49:00,
2013-04-24 15:54:00,54.3,29.2,29.88,SE,135,2.9,3.5,38,0.00,CLR,,0.00,WeatherDisplay:10.37,2013-04-24 21:54:00,
2013-04-24 15:59:00,54.0,28.9,29.88,SE,135,0.0,2.3,38,0.00,CLR,,0.00,WeatherDisplay:10.37,2013-04-24 21:59:00,
2013-04-24 16:04:00,54.3,31.1,29.88,ENE,68,8.5,8.5,41,0.00,CLR,,0.00,WeatherDisplay:10.37,2013-04-24 22:04:00,
2013-04-24 16:09:00,53.8,30.0,29.88,SE,135,4.7,5.8,40,0.00,CLR,,0.00,WeatherDisplay:10.37,2013-04-24 22:09:00,
2013-04-24 16:14:00,54.1,31.5,29.88,SSE,158,4.5,4.6,42,0.00,CLR,,0.00,WeatherDisplay:10.37,2013-04-24 22:14:00,
2013-04-24 16:19:00,53.8,29.4,29.88,ESE,112,5.2,6.9,39,0.00,CLR,,0.00,WeatherDisplay:10.37,2013-04-24 22:19:00,
2013-04-24 16:24:00,53.8,28.7,29.88,South,180,0.0,0.0,38,0.00,CLR,,0.00,WeatherDisplay:10.37,2013-04-24 22:24:00,
2013-04-24 16:29:00,54.1,29.7,29.88,South,180,0.0,3.5,39,0.00,CLR,,0.00,WeatherDisplay:10.37,2013-04-24 22:29:00,
2013-04-24 16:34:00,54.0,30.2,29.88,SE,135,0.0,0.0,40,0.00,CLR,,0.00,WeatherDisplay:10.37,2013-04-24 22:34:00,
2013-04-24 16:39:00,53.4,29.1,29.88,East,90,8.6,9.2,39,0.00,CLR,,0.00,WeatherDisplay:10.37,2013-04-24 22:39:00,
2013-04-24 16:44:00,53.4,29.7,29.88,East,90,5.8,5.8,40,0.00,CLR,,0.00,WeatherDisplay:10.37,2013-04-24 22:44:00,
2013-04-24 16:49:00,53.2,28.3,29.88,ENE,68,8.5,8.5,38,0.00,CLR,,0.00,WeatherDisplay:10.37,2013-04-24 22:49:00,
2013-04-24 16:54:00,53.1,28.7,29.88,NE,45,5.3,5.8,39,0.00,CLR,,0.00,WeatherDisplay:10.37,2013-04-24 22:54:00,
2013-04-24 16:59:00,52.9,26.6,29.88,SSE,158,0.0,3.5,36,0.00,CLR,,0.00,WeatherDisplay:10.37,2013-04-24 22:59:00,
2013-04-24 17:04:00,53.2,29.5,29.88,ENE,68,3.2,6.3,40,0.00,CLR,,0.00,WeatherDisplay:10.37,2013-04-24 23:04:00,
2013-04-24 17:09:00,53.2,28.9,29.88,NE,45,7.9,9.2,39,0.00,CLR,,0.00,WeatherDisplay:10.37,2013-04-24 23:09:00,
2013-04-24 17:14:00,52.7,25.8,29.88,NE,45,6.3,10.4,35,0.00,CLR,,0.00,WeatherDisplay:10.37,2013-04-24 23:14:00,
2013-04-24 17:19:00,52.5,25.6,29.88,NE,45,10.1,10.4,35,0.00,CLR,,0.00,WeatherDisplay:10.37,2013-04-24 23:19:00,
2013-04-24 17:24:00,52.7,27.8,29.88,ESE,112,7.4,7.4,38,0.00,CLR,,0.00,WeatherDisplay:10.37,2013-04-24 23:24:00,
2013-04-24 17:29:00,52.9,27.9,29.88,SE,135,6.0,6.0,38,0.00,CLR,,0.00,WeatherDisplay:10.37,2013-04-24 23:29:00,
2013-04-24 17:34:00,52.5,28.9,29.88,ENE,68,6.2,7.8,40,0.00,CLR,,0.00,WeatherDisplay:10.37,2013-04-24 23:34:00,
2013-04-24 17:39:00,52.3,28.1,29.89,ENE,68,10.2,11.5,39,0.00,CLR,,0.00,WeatherDisplay:10.37,2013-04-24 23:39:00,
2013-04-24 17:44:00,52.3,27.5,29.89,ENE,68,8.0,8.1,38,0.00,CLR,,0.00,WeatherDisplay:10.37,2013-04-24 23:44:00,
2013-04-24 17:49:00,52.2,27.3,29.89,East,90,7.0,8.1,38,0.00,CLR,,0.00,WeatherDisplay:10.37,2013-04-24 23:49:00,
2013-04-24 17:54:00,52.3,28.1,29.89,ESE,112,5.7,5.8,39,0.00,CLR,,0.00,WeatherDisplay:10.37,2013-04-24 23:54:00,
2013-04-24 17:59:00,52.3,28.1,29.89,East,90,9.4,9.4,39,0.00,CLR,,0.00,WeatherDisplay:10.37,2013-04-24 23:59:00,
2013-04-24 18:04:00,52.5,28.2,29.89,SE,135,10.3,10.4,39,0.00,CLR,,0.00,WeatherDisplay:10.37,2013-04-25 00:04:00,
2013-04-24 18:09:00,52.0,28.4,29.89,ENE,68,10.1,10.4,40,0.00,CLR,,0.00,WeatherDisplay:10.37,2013-04-25 00:09:00,
2013-04-24 18:14:00,51.6,27.4,29.89,East,90,7.4,7.4,39,0.00,CLR,,0.00,WeatherDisplay:10.37,2013-04-25 00:14:00,
2013-04-24 18:19:00,51.4,27.3,29.89,ENE,68,7.2,7.2,39,0.00,CLR,,0.00,WeatherDisplay:10.37,2013-04-25 00:19:00,
2013-04-24 18:24:00,51.3,27.1,29.89,East,90,6.0,6.0,39,0.00,CLR,,0.00,WeatherDisplay:10.37,2013-04-25 00:24:00,
2013-04-24 18:29:00,51.1,28.2,29.89,ESE,112,4.9,4.9,41,0.00,CLR,,0.00,WeatherDisplay:10.37,2013-04-25 00:29:00,
2013-04-24 18:34:00,50.7,27.2,29.89,ENE,68,6.6,6.9,40,0.00,CLR,,0.00,WeatherDisplay:10.37,2013-04-25 00:34:00,
2013-04-24 18:39:00,50.7,27.8,29.90,East,90,5.3,5.8,41,0.00,CLR,,0.00,WeatherDisplay:10.37,2013-04-25 00:39:00,
2013-04-24 18:44:00,50.4,26.9,29.90,ESE,112,5.1,8.1,40,0.00,CLR,,0.00,WeatherDisplay:10.37,2013-04-25 00:44:00,
2013-04-24 18:49:00,50.2,27.4,29.89,SE,135,3.8,6.9,41,0.00,CLR,,0.00,WeatherDisplay:10.37,2013-04-25 00:49:00,
2013-04-24 18:54:00,49.8,27.0,29.89,ESE,112,5.1,5.1,41,0.00,CLR,,0.00,WeatherDisplay:10.37,2013-04-25 00:54:00,
2013-04-24 18:59:00,49.8,28.2,29.89,ESE,112,6.0,6.0,43,0.00,CLR,,0.00,WeatherDisplay:10.37,2013-04-25 00:59:00,
2013-04-24 19:04:00,49.6,28.0,29.89,ESE,112,4.5,4.6,43,0.00,CLR,,0.00,WeatherDisplay:10.37,2013-04-25 01:04:00,
2013-04-24 19:09:00,49.6,29.1,29.89,ESE,112,4.0,4.0,45,0.00,CLR,,0.00,WeatherDisplay:10.37,2013-04-25 01:09:00,
2013-04-24 19:14:00,49.6,29.1,29.90,ESE,112,4.0,4.0,45,0.00,CLR,,0.00,WeatherDisplay:10.37,2013-04-25 01:14:00,
2013-04-24 19:19:00,49.6,28.6,29.90,ESE,112,0.0,0.0,44,0.00,CLR,,0.00,WeatherDisplay:10.37,2013-04-25 01:19:00,
2013-04-24 19:24:00,49.1,28.7,29.90,SE,135,0.0,0.0,45,0.00,CLR,,0.00,WeatherDisplay:10.37,2013-04-25 01:24:00,
2013-04-24 19:29:00,48.7,28.9,29.90,SE,135,0.0,0.0,46,0.00,CLR,,0.00,WeatherDisplay:10.37,2013-04-25 01:29:00,
2013-04-24 19:34:00,48.4,29.1,29.90,SE,135,0.0,0.0,47,0.00,CLR,,0.00,WeatherDisplay:10.37,2013-04-25 01:34:00,
2013-04-24 19:39:00,47.5,28.2,29.91,ESE,112,0.0,0.0,47,0.00,CLR,,0.00,WeatherDisplay:10.37,2013-04-25 01:39:00,
2013-04-24 19:44:00,46.9,27.7,29.91,East,90,0.0,0.0,47,0.00,CLR,,0.00,WeatherDisplay:10.37,2013-04-25 01:44:00,
2013-04-24 19:49:00,45.7,27.6,29.91,ESE,112,0.0,0.0,49,0.00,CLR,,0.00,WeatherDisplay:10.37,2013-04-25 01:49:00,
2013-04-24 19:54:00,45.1,27.6,29.91,ESE,112,0.0,0.0,50,0.00,CLR,,0.00,WeatherDisplay:10.37,2013-04-25 01:54:00,
2013-04-24 19:59:00,44.4,27.4,29.91,SE,135,2.9,3.5,51,0.00,CLR,,0.00,WeatherDisplay:10.37,2013-04-25 01:59:00,
2013-04-24 20:04:00,43.5,26.6,29.91,SE,135,3.2,3.5,51,0.00,CLR,,0.00,WeatherDisplay:10.37,2013-04-25 02:04:00,
2013-04-24 20:09:00,43.0,26.5,29.91,ESE,112,3.1,3.5,52,0.00,CLR,,0.00,WeatherDisplay:10.37,2013-04-25 02:09:00,
2013-04-24 20:14:00,41.7,26.3,29.91,ESE,112,2.2,2.3,54,0.00,CLR,,0.00,WeatherDisplay:10.37,2013-04-25 02:14:00,
2013-04-24 20:19:00,41.2,26.7,29.91,East,90,0.0,0.0,56,0.00,CLR,,0.00,WeatherDisplay:10.37,2013-04-25 02:19:00,
2013-04-24 20:24:00,39.7,27.0,29.92,East,90,0.0,0.0,60,0.00,CLR,,0.00,WeatherDisplay:10.37,2013-04-25 02:24:00,
2013-04-24 20:29:00,39.0,26.3,29.92,East,90,2.5,2.5,60,0.00,CLR,,0.00,WeatherDisplay:10.37,2013-04-25 02:29:00,
2013-04-24 20:34:00,38.8,25.7,29.92,SE,135,4.2,4.9,59,0.00,CLR,,0.00,WeatherDisplay:10.37,2013-04-25 02:34:00,
2013-04-24 20:39:00,39.6,25.6,29.92,ESE,112,5.5,5.8,57,0.00,CLR,,0.00,WeatherDisplay:10.37,2013-04-25 02:39:00,
2013-04-24 20:44:00,39.6,25.6,29.93,SE,135,3.8,3.8,57,0.00,CLR,,0.00,WeatherDisplay:10.37,2013-04-25 02:44:00,
2013-04-24 20:49:00,39.4,25.4,29.92,ESE,112,1.7,3.5,57,0.00,CLR,,0.00,WeatherDisplay:10.37,2013-04-25 02:49:00,
2013-04-24 20:54:00,39.0,25.5,29.92,ESE,112,2.5,3.5,58,0.00,CLR,,0.00,WeatherDisplay:10.37,2013-04-25 02:54:00,
2013-04-24 20:59:00,38.8,24.9,29.93,ESE,112,4.0,4.0,57,0.00,CLR,,0.00,WeatherDisplay:10.37,2013-04-25 02:59:00,
2013-04-24 21:04:00,39.4,25.0,29.93,ESE,112,5.4,5.8,56,0.00,CLR,,0.00,WeatherDisplay:10.37,2013-04-25 03:04:00,
2013-04-24 21:09:00,39.9,25.0,29.93,SE,135,2.9,4.6,55,0.00,CLR,,0.00,WeatherDisplay:10.37,2013-04-25 03:09:00,
2013-04-24 21:14:00,39.7,24.9,29.93,ESE,112,2.9,3.5,55,0.00,CLR,,0.00,WeatherDisplay:10.37,2013-04-25 03:14:00,
2013-04-24 21:19:00,39.2,24.8,29.94,SE,135,2.9,3.5,56,0.00,CLR,,0.00,WeatherDisplay:10.37,2013-04-25 03:19:00,
2013-04-24 21:24:00,38.7,24.3,29.94,West,270,0.0,0.0,56,0.00,CLR,,0.00,WeatherDisplay:10.37,2013-04-25 03:24:00,
2013-04-24 21:29:00,37.9,24.5,29.94,WSW,248,2.5,2.5,58,0.00,CLR,,0.00,WeatherDisplay:10.37,2013-04-25 03:29:00,
2013-04-24 21:34:00,37.6,24.1,29.94,SW,225,0.0,0.0,58,0.00,CLR,,0.00,WeatherDisplay:10.37,2013-04-25 03:34:00,
2013-04-24 21:39:00,37.6,24.1,29.95,SW,225,1.8,2.3,58,0.00,CLR,,0.00,WeatherDisplay:10.37,2013-04-25 03:39:00,
2013-04-24 21:44:00,37.9,24.5,29.95,SSW,202,0.0,3.5,58,0.00,CLR,,0.00,WeatherDisplay:10.37,2013-04-25 03:44:00,
2013-04-24 21:49:00,37.9,24.0,29.95,SSW,202,2.5,3.5,57,0.00,CLR,,0.00,WeatherDisplay:10.37,2013-04-25 03:49:00,
2013-04-24 21:54:00,37.8,23.9,29.95,South,180,0.2,2.5,57,0.00,CLR,,0.00,WeatherDisplay:10.37,2013-04-25 03:54:00,
2013-04-24 21:59:00,37.6,24.1,29.95,South,180,1.6,3.5,58,0.00,CLR,,0.00,WeatherDisplay:10.37,2013-04-25 03:59:00,
2013-04-24 22:01:00,37.4,24.0,29.95,SSE,158,2.6,3.5,58,0.00,CLR,,0.00,WeatherDisplay:10.37,2013-04-25 04:01:00,
2013-04-24 22:06:00,37.0,23.6,29.95,South,180,3.4,3.5,58,0.00,CLR,,0.00,WeatherDisplay:10.37,2013-04-25 04:06:00,
2013-04-24 22:11:00,36.7,23.3,29.94,SSE,158,0.3,2.3,58,0.00,CLR,,0.00,WeatherDisplay:10.37,2013-04-25 04:11:00,
2013-04-24 22:16:00,36.5,23.5,29.94,West,270,0.0,0.0,59,0.00,CLR,,0.00,WeatherDisplay:10.37,2013-04-25 04:16:00,
2013-04-24 22:21:00,35.8,23.2,29.94,WSW,248,0.0,0.0,60,0.00,CLR,,0.00,WeatherDisplay:10.37,2013-04-25 04:21:00,
2013-04-24 22:26:00,35.6,23.1,29.94,WSW,248,0.0,0.0,60,0.00,CLR,,0.00,WeatherDisplay:10.37,2013-04-25 04:26:00,
2013-04-24 22:31:00,35.4,22.9,29.94,SSW,202,0.0,0.0,60,0.00,CLR,,0.00,WeatherDisplay:10.37,2013-04-25 04:31:00,
2013-04-24 22:36:00,35.4,22.9,29.94,SSW,202,0.0,0.0,60,0.00,CLR,,0.00,WeatherDisplay:10.37,2013-04-25 04:36:00,
2013-04-24 22:41:00,35.4,22.5,29.94,SSW,202,0.0,0.0,59,0.00,CLR,,0.00,WeatherDisplay:10.37,2013-04-25 04:41:00,
2013-04-24 22:46:00,35.8,23.6,29.94,NE,45,0.0,0.0,61,0.00,CLR,,0.00,WeatherDisplay:10.37,2013-04-25 04:46:00,
2013-04-24 22:51:00,35.2,23.9,29.94,NE,45,2.9,2.9,63,0.00,CLR,,0.00,WeatherDisplay:10.37,2013-04-25 04:51:00,
2013-04-24 22:56:00,35.2,24.3,29.93,ENE,68,4.0,4.0,64,0.00,CLR,,0.00,WeatherDisplay:10.37,2013-04-25 04:56:00,
2013-04-24 23:01:00,34.9,24.3,29.93,NE,45,2.5,2.5,65,0.00,CLR,,0.00,WeatherDisplay:10.37,2013-04-25 05:01:00,
2013-04-24 23:06:00,34.3,23.4,29.93,NNE,22,0.0,0.0,64,0.00,CLR,,0.00,WeatherDisplay:10.37,2013-04-25 05:06:00,
2013-04-24 23:11:00,34.3,23.4,29.93,NNW,338,0.0,0.0,64,0.00,CLR,,0.00,WeatherDisplay:10.37,2013-04-25 05:11:00,
2013-04-24 23:16:00,34.3,23.4,29.93,NNW,338,0.0,0.0,64,0.00,CLR,,0.00,WeatherDisplay:10.37,2013-04-25 05:16:00,
2013-04-24 23:21:00,34.3,23.4,29.93,NW,315,0.0,0.0,64,0.00,CLR,,0.00,WeatherDisplay:10.37,2013-04-25 05:21:00,
2013-04-24 23:26:00,34.0,23.1,29.93,WNW,292,0.0,0.0,64,0.00,CLR,,0.00,WeatherDisplay:10.37,2013-04-25 05:26:00,
2013-04-24 23:31:00,34.0,23.1,29.93,WNW,292,0.0,0.0,64,0.00,CLR,,0.00,WeatherDisplay:10.37,2013-04-25 05:31:00,
2013-04-24 23:36:00,34.3,23.0,29.92,West,270,0.0,0.0,63,0.00,CLR,,0.00,WeatherDisplay:10.37,2013-04-25 05:36:00,
2013-04-24 23:41:00,34.3,22.7,29.92,West,270,0.0,0.0,62,0.00,CLR,,0.00,WeatherDisplay:10.37,2013-04-25 05:41:00,
2013-04-24 23:46:00,34.5,22.8,29.92,West,270,0.0,0.0,62,0.00,CLR,,0.00,WeatherDisplay:10.37,2013-04-25 05:46:00,
2013-04-24 23:51:00,35.2,23.9,29.92,NE,45,0.0,0.0,63,0.00,CLR,,0.00,WeatherDisplay:10.37,2013-04-25 05:51:00,
2013-04-24 23:56:00,34.9,23.6,29.91,North,0,0.0,0.0,63,0.00,CLR,,0.00,WeatherDisplay:10.37,2013-04-25 05:56:00,